DW4433 Weather Reports


time (UTC)temp
F
wind
direction
speed
knots
gust
knots
rain 1hr
in
rain 24hr
in
rain mn
in
humidity
%
barometer
mb
20260510113029 56 34 0.9 5.2 0.00 0.00 0.00 100 1014.6
20260510111519 55 316 0.9 8.7 0.00 0.00 0.00 100 1014.7
20260510110019 55 59 0.0 5.2 0.00 0.00 0.00 100 1014.7
20260510104510 55 42 0.9 8.7 0.00 0.00 0.00 100 1014.7
20260510103007 56 44 0.0 7.8 0.00 0.00 0.00 100 1014.7
20260510101600 56 343 0.9 8.7 0.00 0.00 0.00 100 1014.8
20260510100057 56 47 0.9 10.4 0.00 0.00 0.00 100 1014.8
20260510094553 56 67 0.0 8.7 0.00 0.00 0.00 100 1014.9
20260510093101 56 10 0.0 7.0 0.00 0.00 0.00 100 1015.0
20260510091540 56 15 1.7 5.2 0.00 0.00 0.00 100 1015.1
20260510090036 56 51 1.7 9.6 0.00 0.00 0.00 100 1015.1
20260510084532 56 294 0.0 7.0 0.00 0.00 0.00 100 1014.9
20260510083035 55 21 0.0 4.3 0.00 0.00 0.00 100 1015.0
20260510081535 54 11 0.9 7.8 0.00 0.00 0.00 100 1015.0
20260510080016 54 23 0.0 3.5 0.00 0.00 0.00 100 1015.2
20260510074512 53 94 0.0 3.5 0.00 0.00 0.00 100 1015.3
20260510073007 53 309 0.0 4.3 0.00 0.00 0.00 100 1015.4
20260510071501 53 42 0.0 4.3 0.00 0.00 0.00 100 1015.5
20260510070057 52 59 0.9 6.1 0.00 0.00 0.00 100 1015.4
20260510064557 52 53 0.0 8.7 0.00 0.00 0.00 100 1015.4
20260510063048 52 53 0.0 7.0 0.00 0.00 0.00 100 1015.5
20260510061545 52 355 0.0 6.1 0.00 0.00 0.00 100 1015.5
20260510060046 52 55 0.0 7.0 0.00 0.00 0.00 100 1015.5
20260510054535 52 36 0.9 6.1 0.00 0.00 0.00 100 1015.3
20260510053039 52 26 0.0 5.2 0.00 0.00 0.00 100 1015.2
20260510051524 52 15 0.0 5.2 0.00 0.00 0.00 100 1015.4
20260510050017 52 5 0.0 5.2 0.00 0.00 0.00 100 1015.3
20260510044532 52 40 0.0 4.3 0.00 0.00 0.00 100 1015.4
20260510043009 52 52 0.0 6.1 0.00 0.00 0.00 100 1015.3
20260510041501 52 360 0.0 4.3 0.00 0.00 0.00 100 1015.4
20260510040058 53 338 0.0 5.2 0.00 0.00 0.00 100 1015.4
20260510034556 53 44 0.0 5.2 0.00 0.00 0.00 100 1015.5
20260510033058 53 35 0.9 5.2 0.00 0.00 0.00 100 1015.5
20260510031540 54 355 0.0 8.7 0.00 0.00 0.00 100 1015.4
20260510030044 54 158 0.0 4.3 0.00 0.00 0.00 100 1015.5
20260510024532 54 28 0.0 3.5 0.00 0.00 0.00 100 1015.5
20260510023026 54 13 0.9 4.3 0.00 0.00 0.00 100 1015.5
20260510021519 54 9 0.0 3.5 0.00 0.00 0.00 100 1015.5
20260510020021 54 53 0.0 3.5 0.00 0.00 0.00 100 1015.6
20260510014510 54 329 0.0 3.5 0.00 0.00 0.00 100 1015.7
20260510013008 54 31 0.0 1.7 0.00 0.00 0.00 100 1015.7
20260510011502 54 50 0.0 4.3 0.00 0.00 0.00 100 1015.6
20260510010055 55 360 0.0 6.1 0.00 0.00 0.00 100 1015.5
20260510004551 55 31 0.9 7.8 0.00 0.00 0.00 18 1015.5
20260510003054 55 50 0.0 4.3 0.00 0.00 0.00 28 1015.6
20260510001542 55 52 0.9 7.0 0.00 0.00 0.00 31 1015.6
20260510000036 55 29 0.0 6.1 0.00 0.00 0.00 34 1015.6
20260509234542 55 13 1.7 7.0 0.00 0.00 0.00 37 1015.7
20260509233026 55 63 0.9 5.2 0.00 0.00 0.00 41 1015.8
20260509231523 56 21 0.0 5.2 0.00 0.00 0.00 45 1015.8
20260509230021 56 9 0.9 4.3 0.00 0.00 0.00 48 1015.8
20260509224511 56 17 0.9 6.1 0.00 0.00 0.00 50 1015.8
20260509223009 56 33 0.0 4.3 0.00 0.00 0.00 51 1015.8
20260509221503 56 22 0.9 5.2 0.00 0.00 0.00 52 1015.8
20260509220058 56 34 0.0 5.2 0.00 0.00 0.00 52 1015.8
20260509214552 56 27 0.0 5.2 0.00 0.00 0.00 51 1015.8
20260509213048 56 42 0.0 6.1 0.00 0.00 0.00 51 1015.8
20260509211543 56 9 0.0 4.3 0.00 0.00 0.00 51 1015.7
20260509210037 56 16 0.0 6.1 0.00 0.00 0.00 51 1015.8
20260509204532 57 355 0.0 6.1 0.00 0.00 0.00 51 1015.6
20260509203028 57 355 0.0 6.1 0.00 0.00 0.00 51 1015.5
20260509201522 58 345 0.0 5.2 0.00 0.00 0.00 51 1015.4
20260509200016 58 59 1.7 5.2 0.00 0.00 0.00 51 1015.3
20260509194514 59 360 0.0 7.0 0.00 0.00 0.00 50 1015.2
20260509193008 60 25 0.9 6.1 0.00 0.00 0.00 49 1015.3
20260509191503 61 13 0.0 6.1 0.00 0.00 0.00 49 1015.2
20260509184605 63 51 0.9 7.0 0.00 0.00 0.00 49 1015.1
20260509183048 64 58 0.0 4.3 0.00 0.00 0.00 50 1014.8
20260509181547 65 26 0.0 4.3 0.00 0.00 0.00 50 1014.7
20260509180037 67 61 0.9 6.1 0.00 0.00 0.00 48 1014.9
20260509174533 68 323 0.0 5.2 0.00 0.00 0.00 47 1014.8
20260509173028 69 21 0.0 7.0 0.00 0.00 0.00 47 1014.7
20260509171536 69 29 0.0 3.5 0.00 0.00 0.00 46 1014.7
20260509170017 70 45 0.0 1.7 0.00 0.00 0.00 44 1014.6
20260509164513 71 36 0.0 5.2 0.00 0.00 0.00 42 1014.7
20260509163009 72 27 0.0 6.1 0.00 0.00 0.00 41 1014.7
20260509161506 73 40 0.0 4.3 0.00 0.00 0.00 41 1014.7
20260509160058 73 308 0.0 5.2 0.00 0.00 0.00 42 1014.6
20260509154553 73 145 0.0 5.2 0.00 0.00 0.00 43 1014.6
20260509153051 74 40 0.9 4.3 0.00 0.00 0.00 40 1014.8
20260509151545 74 31 0.0 3.5 0.00 0.00 0.00 40 1015.1
20260509150010 74 63 0.0 6.1 0.00 0.00 0.00 42 1015.1
20260509144506 73 315 0.0 5.2 0.00 0.00 0.00 44 1015.4
20260509143102 73 59 0.9 7.0 0.00 0.00 0.00 43 1015.4
20260509141535 74 56 1.7 7.0 0.00 0.00 0.00 43 1015.2
20260509140022 74 50 0.0 5.2 0.00 0.00 0.00 44 1015.0
20260509134516 74 50 0.9 7.8 0.00 0.00 0.00 43 1014.9
20260509133012 74 34 0.0 7.8 0.00 0.00 0.00 41 1015.0
20260509131510 75 15 0.0 3.5 0.00 0.00 0.00 41 1015.2
20260509130003 74 17 0.0 4.3 0.00 0.00 0.00 41 1015.2
20260509124611 74 11 0.0 4.3 0.00 0.00 0.00 43 1015.2
20260509123058 74 274 0.9 5.2 0.00 0.00 0.00 44 1015.3
20260509121550 74 51 0.0 4.3 0.00 0.00 0.00 43 1015.6
20260509120044 73 55 0.0 5.2 0.00 0.00 0.00 46 1015.7
20260509114535 72 15 0.0 4.3 0.00 0.00 0.00 46 1015.9